Find Starlink 4380

NORAD ID: 53650 Int'l Des: 2022-105 Owner: SPXS Country: US Constellation: starlink operational
LEOCIRCULARRETROGRADESSO

現在のビュー

3D地球を読み込み中...

About Starlink 4380

Starlink 4380 (NORAD 53650) is a starlink constellation satellite (v1.5) launched Aug 31, 2022 by SPXS of US. It operates in LEO, CIRCULAR, RETROGRADE, SSO orbit with a mass of 300.00 kg.

Starlink 4380について

説明を読み込み中...

次回通過

Passes for default location (London). Set your location on the main map for personalized predictions.

高度履歴

Loading altitude history...

軌道要素

1 53650U 22105C 26171.40995271 .00010282 00000-0 71632-3 0 9998
2 53650 97.3417 50.2987 0002170 85.5343 274.6132 15.05608881208682
Epoch: Jun 20, 2026 • Age: 19 hours

現在のステータス

高度 552.2 km
速度 7.59 km/s
衛星直下点 2.17°N, 66.53°E
打ち上げ日 Aug 31, 2022
運用期間 3.8 years
タイプ internet

技術仕様

分類 Payload
質量 300.00 kg
乾燥質量 290.00 kg
総質量 300.00 kg
長さ 0.20 m
直径 2.80 m
スパン 9.00 m
形状 Box + pan
製造者 SPXS
バスタイプ Starlink
フェーズステータス In Orbit
所有者/国 SPXS/US

Most Searched